Weather History for Strasbourg, France

Change the Weather History Date:

Friday, April 25, 2014

  Actual Average Record
Temperature  
Mean Temperature 63 °F -  
Max Temperature 77 °F 66 °F 84 °F (2007)
Min Temperature 49 °F 48 °F 37 °F (1997)
Degree Days  
Heating Degree Days 2    
Growing Degree Days 13 (Base 50)    
Moisture  
Dew Point 46 °F    
Average Humidity 53    
Maximum Humidity 82    
Minimum Humidity 22    
Precipitation  
Precipitation 0.00 in 0.09 in - ()
Sea Level Pressure  
Sea Level Pressure 29.84 in    
Wind  
Wind Speed 5 mph ()    
Max Wind Speed 14 mph    
Max Gust Speed -    
Visibility 7.3 miles    
Events      
Averages and records for this station are not official NWS values.
T = Trace of Precipitation, MM = Missing Value Source: Averaged Metar Reports

Daily Weather History Graph

Daily Weather History Graph

Search for Another Location

Airport:

Trip Planner

Search our weather history database for the weather conditions in past years. The results will help you decide how hot, cold, wet, or windy it might be!

Date:

Astronomy

Apr. 25, 2014 Rise Set
Actual Time 6:20 AM CEST 8:35 PM CEST
Civil Twilight 5:46 AM CEST 9:09 PM CEST
Nautical Twilight 5:03 AM CEST 9:52 PM CEST
Astronomical Twilight 4:15 AM CEST 10:41 PM CEST
Moon 4:20 AM CEST 4:20 PM CEST
Length of Visible Light 15h 23m
Length of Day
14h 14m
Waning Crescent, 17% of the Moon is Illuminated
Apr 25
Waning Crescent
Apr 29
New
May 7
First Quarter
May 14
Full
May 21
Last Quarter

Hourly Weather History & Observations

Time (CEST) Temp. Dew Point Humidity Pressure Visibility Wind Dir Wind Speed Gust Speed Precip Events Conditions
12:00 AM 59 °F 44 °F 45% 29.87 in 37 mi NE 2.3 mph - -   Clear
12:00 AM 59.0 °F 42.8 °F 55% 29.86 in 6.2 mi Variable 2.3 mph - N/A   Unknown
12:30 AM 59.0 °F 44.6 °F 59% 29.86 in 6.2 mi Variable 2.3 mph - N/A   Unknown
1:00 AM 56 °F 44 °F 54% 29.86 in 25 mi WNW 3.5 mph - -   Clear
1:00 AM 55.4 °F 44.6 °F 67% 29.86 in 6.2 mi Variable 3.5 mph - N/A   Unknown
1:30 AM 53.6 °F 44.6 °F 72% 29.86 in 6.2 mi Variable 1.2 mph - N/A   Unknown
2:00 AM 53 °F 44 °F 63% 29.86 in 25 mi NW 2.3 mph - -   Clear
2:00 AM 53.6 °F 44.6 °F 72% 29.86 in 6.2 mi NW 2.3 mph - N/A   Unknown
2:30 AM 51.8 °F 44.6 °F 76% 29.83 in 6.2 mi Variable 2.3 mph - N/A   Unknown
3:00 AM 51 °F 45 °F 72% 29.85 in 25 mi WNW 3.5 mph - -   Clear
3:00 AM 50.0 °F 44.6 °F 82% 29.83 in 6.2 mi WNW 3.5 mph - N/A   Unknown
3:30 AM 51.8 °F 44.6 °F 76% 29.83 in 6.2 mi North 4.6 mph - N/A   Unknown
4:00 AM 52 °F 43 °F 63% 29.84 in 25 mi NNW 5.8 mph - -   Clear
4:00 AM 51.8 °F 42.8 °F 71% 29.83 in 6.2 mi NNW 5.8 mph - N/A   Unknown
4:30 AM 51.8 °F 42.8 °F 71% 29.83 in 6.2 mi NW 3.5 mph - N/A   Unknown
5:00 AM 52 °F 43 °F 62% 29.83 in 16 mi NW 4.6 mph - -   Clear
5:00 AM 51.8 °F 42.8 °F 71% 29.83 in 6.2 mi NW 4.6 mph - N/A   Unknown
5:30 AM 50.0 °F 42.8 °F 76% 29.80 in 6.2 mi NNW 5.8 mph - N/A   Unknown
6:00 AM 51 °F 43 °F 66% 29.83 in 15 mi NW 4.6 mph - -   Clear
6:00 AM 50.0 °F 42.8 °F 76% 29.80 in 6.2 mi NW 4.6 mph - N/A   Unknown
6:30 AM 50.0 °F 42.8 °F 76% 29.80 in 6.2 mi North 4.6 mph - N/A   Unknown
7:00 AM 53 °F 45 °F 65% 29.83 in 12 mi North 4.6 mph - -   Clear
7:00 AM 53.6 °F 44.6 °F 72% 29.83 in 6.2 mi North 4.6 mph - N/A   Unknown
7:30 AM 53.6 °F 44.6 °F 72% 29.83 in 6.2 mi North 4.6 mph - N/A   Unknown
8:00 AM 56 °F 47 °F 62% 29.84 in 11 mi NW 4.6 mph - -   Clear
8:00 AM 57.2 °F 46.4 °F 67% 29.83 in 6.2 mi NW 4.6 mph - N/A   Unknown
8:30 AM 57.2 °F 46.4 °F 67% 29.83 in 6.2 mi North 4.6 mph - N/A   Unknown
9:00 AM 59 °F 47 °F 56% 29.85 in 12 mi NNW 5.8 mph - -   Clear
9:00 AM 59.0 °F 48.2 °F 67% 29.83 in 6.2 mi NNW 5.8 mph - N/A   Unknown
9:30 AM 60.8 °F 48.2 °F 63% 29.86 in 6.2 mi NNW 6.9 mph - N/A   Unknown
10:00 AM 63 °F 48 °F 48% 29.85 in 12 mi NNW 4.6 mph - -   Clear
10:00 AM 62.6 °F 48.2 °F 59% 29.86 in 6.2 mi NNW 4.6 mph - N/A   Unknown
10:30 AM 66.2 °F 48.2 °F 52% 29.83 in 6.2 mi NNW 5.8 mph - N/A   Unknown
11:00 AM 66 °F 48 °F 41% 29.85 in 11 mi NW 4.6 mph - -   Clear
11:00 AM 66.2 °F 48.2 °F 52% 29.83 in 6.2 mi NW 4.6 mph - N/A   Unknown
11:30 AM 68.0 °F 48.2 °F 49% 29.83 in 6.2 mi NNE 5.8 mph - N/A   Unknown
12:00 PM 69 °F 49 °F 38% 29.84 in 16 mi NE 3.5 mph - -   Clear
12:00 PM 69.8 °F 48.2 °F 46% 29.83 in 6.2 mi Variable 3.5 mph - N/A   Partly Cloudy
12:30 PM 69.8 °F 48.2 °F 46% 29.83 in 6.2 mi NE 6.9 mph - N/A   Unknown
1:00 PM 72 °F 50 °F 35% 29.83 in 22 mi NNE 6.9 mph - -   Clear
1:00 PM 71.6 °F 50.0 °F 46% 29.83 in 6.2 mi NNE 6.9 mph - N/A   Unknown
1:30 PM 73.4 °F 48.2 °F 41% 29.83 in 6.2 mi NNW 6.9 mph - N/A   Unknown
2:00 PM 75 °F 47 °F 26% 29.82 in 11 mi North 6.9 mph - -   Clear
2:00 PM 75.2 °F 48.2 °F 38% 29.83 in 6.2 mi North 6.9 mph - N/A   Unknown
2:30 PM 77.0 °F 44.6 °F 32% 29.83 in 6.2 mi NNW 11.5 mph - N/A   Unknown
3:00 PM 76 °F 44 °F 22% 29.81 in 31 mi NNW 11.5 mph - -   Clear
3:00 PM 77.0 °F 44.6 °F 32% 29.83 in 6.2 mi NNW 11.5 mph - N/A   Unknown
3:30 PM 77.0 °F 46.4 °F 34% 29.83 in 6.2 mi NW 12.7 mph - N/A   Unknown
4:00 PM 77 °F 46 °F 23% 29.81 in 31 mi NW 12.7 mph - -   Clear
4:00 PM 77.0 °F 46.4 °F 34% 29.83 in 6.2 mi NW 12.7 mph - N/A   Unknown
4:30 PM 77.0 °F 48.2 °F 36% 29.83 in 6.2 mi NW 13.8 mph - N/A   Unknown
5:00 PM 76 °F 47 °F 25% 29.81 in 34 mi WNW 13.8 mph - -   Clear
5:00 PM 75.2 °F 46.4 °F 36% 29.83 in 6.2 mi WNW 13.8 mph - N/A   Unknown
5:30 PM 73.4 °F 46.4 °F 38% 29.83 in 6.2 mi NW 11.5 mph - N/A   Unknown
6:00 PM 73.4 °F 46.4 °F 38% 29.83 in 6.2 mi NW 12.7 mph - N/A   Unknown
6:30 PM 73.4 °F 46.4 °F 38% 29.83 in 6.2 mi NW 12.7 mph - N/A   Unknown
7:00 PM 72 °F 46 °F 28% 29.82 in 34 mi NW 12.7 mph - -   Clear
7:00 PM 71.6 °F 46.4 °F 41% 29.83 in 6.2 mi NW 12.7 mph - N/A   Unknown
7:30 PM 69.8 °F 46.4 °F 43% 29.83 in 6.2 mi WNW 13.8 mph - N/A   Unknown
8:00 PM 68 °F 46 °F 33% 29.84 in 37 mi WNW 9.2 mph - -   Clear
8:00 PM 68.0 °F 46.4 °F 46% 29.83 in 6.2 mi WNW 9.2 mph - N/A   Unknown
8:30 PM 66.2 °F 46.4 °F 49% 29.86 in 6.2 mi WNW 9.2 mph - N/A   Unknown
9:00 PM 65 °F 48 °F 43% 29.86 in 37 mi WNW 8.1 mph - -   Clear
9:00 PM 64.4 °F 48.2 °F 56% 29.86 in 6.2 mi WNW 8.1 mph - N/A   Unknown
9:30 PM 64.4 °F 50.0 °F 59% 29.89 in 6.2 mi South 6.9 mph - N/A   Unknown
10:00 PM 64 °F 48 °F 46% 29.91 in 37 mi South 8.1 mph - -   Clear
10:00 PM 64.4 °F 48.2 °F 56% 29.92 in 6.2 mi South 8.1 mph - N/A   Overcast
10:30 PM 62.6 °F 50.0 °F 63% 29.92 in 6.2 mi South 5.8 mph - N/A   Overcast
11:00 PM 60 °F 51 °F 64% 29.93 in 37 mi SW 5.8 mph - -   Clear
11:00 PM 60.8 °F 51.8 °F 72% 29.92 in 6.2 mi SW 5.8 mph - N/A   Mostly Cloudy
11:30 PM 59.0 °F 50.0 °F 72% 29.92 in 6.2 mi Variable 3.5 mph - N/A   Mostly Cloudy